Погода в Анновке

Украина / Запорожская область     46°50′32″N   36°02′04″E
темп.,
°C
ветер,
м/с
пор.,
м/с
влажн.,
%
обл.,
%
осадки,
мм/ч
давл.,
гПа
погр.,
м
17 апреля, сб
сб1700:00+6зюз47800 0.1 1019182
03:00+5з36885 0.1 1020141
06:00+4з35894 0.0 1021113
09:00+9зюз45695 0.0 1022576
12:00+12юз555876 0.0 10221364
15:00+10ююз6665100 0.0 1022455
18:00+9ю456882 0.0 1021261
21:00+7ююв22735 0.0 102123
18 апреля, вс
вс1800:00+7вюв237177 0.0 102022
03:00+6в3374100 0.0 102042
06:00+6всв3576100 0.0 101980
09:00+10вюв576398 0.0 1019451
12:00+12юв567044 0.0 1019867
15:00+12юв556730 0.0 1018861
18:00+11вюв457146 0.0 1017412
21:00+8вюв3684100 0.0 1018162
19 апреля, пн
пн1900:00+9вюв3486100 0.0 1017121
03:00+9св2383100 0.0 1017107
06:00+9св3482100 0.0 1016133
09:00+9всв3585100 0.2 1016226
12:00+11в4582100 0.0 1015375
15:00+13вюв4576100 0.0 1014740
18:00+11вюв5687100 0.0 1013343
21:00+10всв4894100 0.1 1012271
20 апреля, вт
вт2000:00+10в5996100 0.2 1009365
03:00+10всв51098100 2.4 1006391
06:00+11в71398100 5.2 1001350
09:00+11ююв51099100 18.1 999391
12:00+12юз5109273 4.6 999524
15:00+12ююз9148093 5.1 999847
18:00+11ююз13197974 0.0 9991155
21:00+9юз141988100 0.3 1000863
21 апреля, ср
ср2100:00+10зюз131786100 0.6 10041075
03:00+9зюз81485100 0.8 1009991
06:00+8зюз7129239 0.1 1013515
09:00+11зюз587693 0.1 1015784
12:00+13юз796578 0.2 10171417
15:00+14юз6755100 0.3 10171562
18:00+12ююз696891 0.0 1018364
21:00+10ю4784100 0.1 1020173